Showing default

GEESAT 1-06, 52790

Orbit data source: Space-Track

GEESAT 1-06, 52790 is a payload satellite owned by GeeSpace (CN) in LEO that was launched on Thu, 02 Jun 2022 UTC via a CHANG ZHENG 2C launch vehicle from the Xichang Space Center, China (XSC). Payload-class satellites include a variety of spacecraft equipped with specific instruments for various scientific and technological missions. These include communications satellites like Starlink; space stations such as the ISS; scientific satellites like the Hubble; Earth observation satellites from companies like Planet Labs, Umbra, and HawkEye 360; GPS; miniature CubeSats for education and research; and military/defense satellites.

Loading next visibility...
Identifier
52790, 2022-058F
Orbit
LEO
Country
Flag of CNCN / PRC
Related business
Manufacturer
GWCG
Mission
Operational Commercial Navigation
Bus & Motor
GPS100, Unknown motor
Mass
130 kg wet, 130 kg dry
Launch date (UTC)
2022-06-02 (4 years ago)
Launch vehicle
CHANG ZHENG 2C
Launch site
Xichang Space Center, China (XSC)
Object type
Payload
Rocket body
Debris
Shape & HBR
Box + 2 Pan, 1.0 m
Radar Cross Section
0.833 m², Large (>1 m²)

Expand to show TLE details & history
Last TLE update: 2 days ago

TLE from 2 days ago
0 GEESAT 1-06
1 52790U 22058F   26171.44927463  .00000849  00000-0  13548-3 0  9991
2 52790  50.0037 187.8353 0033537 159.8883 200.3384 14.81374640220415
Epoch: 2026-06-20T10:46Z
TLE epoch observation values (Epoch: 2026-06-20T10:46:57.328Z)
Latitude
Longitude
117.4327°
Altitude
647.563 km
Speed
7.523 km/s
True Right ascension
12h 31m 20s
True Declination
0° 00' 00"
Sunlit
Object was in daylight at epoch
Visualization orbit readout
Latitude
Unknown
Longitude
Unknown
Altitude
Unknown
Speed
Unknown
Apparent Right ascension
Unknown
Apparent Declination
Unknown
Sunlit
N/A
Visualization observer readout
Local Sidereal Time
21:55:07
Azimuth
Unknown
Elevation
Unknown
Doppler factor
Unknown
Orbital elements
Apogee altitude
649.234 km
Perigee altitude
602.256 km
Semi-major axis
7,003.882 km
Eccentricity
0.00335
Inclination
50.0037°
RAAN
187.8353°
Arg. of periapsis
159.8883°
True anomaly
200.20535°
Mean anomaly
200.3384°
Eccentric anomaly
200.27182°
Mean motion
3.70284 °/min
Orbital period
97.22 mins
BSTAR
0.00013548
Loading maneuver chart data...
Computing Atmospheric mass density...
Loading historical data...
Loading historical data...
Loading historical data...
Loading historical data...
Loading historical data...
Loading historical data...
Loading historical data...

Documentation

Showing up to 5 results
|